This is the latest recevied weather packets stored in our database for station/object K3PPP. If no packets are shown the sender has not sent any weather packets the latest 10 day(s).
| Time | Temp. | Humidity | Pressure | Rain* | Wind** | Luminosity | Snow |
|---|---|---|---|---|---|---|---|
| 1778172246 | 11.67° C | 47% | 1011.5 hPa | 0 mm | - | 819 W/m² | - |
| 1778171943 | 11.67° C | 49% | 1011.6 hPa | 0 mm | - | 833 W/m² | - |
| 1778171641 | 12.22° C | 49% | 1011.6 hPa | 0 mm | - | 797 W/m² | - |
| 1778171337 | 12.22° C | 47% | 1011.7 hPa | 0 mm | - | 788 W/m² | - |
| 1778171032 | 11.67° C | 47% | 1012.1 hPa | 0 mm | - | 803 W/m² | - |
| 1778170730 | 11.67° C | 49% | 1011.9 hPa | 0 mm | - | 788 W/m² | - |
| 1778170426 | 11.67° C | 51% | 1011.8 hPa | 0 mm | - | 788 W/m² | - |
| 1778170123 | 11.67° C | 52% | 1011.8 hPa | 0 mm | - | 788 W/m² | - |
| 1778169818 | 11.67° C | 49% | 1012.2 hPa | 0 mm | - | 777 W/m² | - |
| 1778169515 | 11.11° C | 48% | 1012.1 hPa | 0 mm | - | 762 W/m² | - |
| 1778169211 | 11.67° C | 49% | 1011.9 hPa | 0 mm | - | 757 W/m² | - |
| 1778168908 | 11.67° C | 52% | 1012.1 hPa | 0 mm | - | 747 W/m² | - |
| 1778168606 | 11.11° C | 49% | 1012.1 hPa | 0 mm | - | 731 W/m² | - |
| 1778168302 | 10.56° C | 49% | 1012.2 hPa | 0 mm | - | 725 W/m² | - |
| 1778167999 | 11.67° C | 49% | 1012.1 hPa | 0 mm | - | 721 W/m² | - |
| 1778167695 | 11.67° C | 48% | 1012.2 hPa | 0 mm | - | 711 W/m² | - |
| 1778167391 | 11.11° C | 52% | 1011.8 hPa | 0 mm | - | 713 W/m² | - |
| 1778167087 | 10.56° C | 50% | 1012.1 hPa | 0 mm | - | 694 W/m² | - |
| 1778166784 | 11.11° C | 53% | 1012.2 hPa | 0 mm | - | 682 W/m² | - |
| 1778166481 | 10.56° C | 50% | 1011.9 hPa | 0 mm | - | 656 W/m² | - |
| 1778166178 | 11.11° C | 49% | 1012.4 hPa | 0 mm | - | 676 W/m² | - |
| 1778165874 | 11.11° C | 48% | 1012.3 hPa | 0 mm | - | 651 W/m² | - |
| 1778165570 | 10.56° C | 49% | 1012.6 hPa | 0 mm | - | 645 W/m² | - |
| 1778165267 | 10° C | 48% | 1012.5 hPa | 0 mm | - | 633 W/m² | - |
| 1778164965 | 9.44° C | 59% | 1012.5 hPa | 0 mm | - | 598 W/m² | - |
* Rain latest hour (hover to see other rain measurements)
** Current wind speed in m/s (hover to see current wind gust speed)